Location: Izdebno
(52.6670°N, 16.2170°E)
Time: 02:54:53
(UTC+02:00)

Transit 4A - Pass Details

Date: 01 March 2024
Orbit: 871 x 972 km, 66.8° (Epoch: 22 April)

Event Time Altitude Azimuth Distance (km) Brightness Sun altitude
Rises 02:07:16 0° 247° (WSW) 3,583 - -38.6°
Reaches altitude 10° 02:10:00 10° 255° (WSW) 2,626 - -38.4°
Maximum altitude 02:15:43 41° 325° (NW) 1,306 - -37.8°
Exits shadow 02:17:51 30° 8° (N) 1,555 9.4 -37.6°
Drops below altitude 10° 02:21:19 10° 34° (NE) 2,571 10.9 -37.2°
Sets 02:23:58 0° 42° (NE) 3,501 11.9 -36.9°
